Location: Seattle
(47.6064°N, 122.3308°W)
Time: 04:07:41
(UTC-08:00)

S-56A Canister/Altair - Pass Details

Date: 28 November 2020
Orbit: 633 x 2499 km, 38.9° (Epoch: 23 January)

Event Time Altitude Azimuth Distance (km) Brightness Sun altitude
Rises 00:20:24 0° 270° (W) 4,180 - -63.4°
Reaches altitude 10° 00:24:10 10° 258° (WSW) 2,890 - -63.3°
Maximum altitude 00:29:21 24° 207° (SSW) 1,685 - -63.0°
Drops below altitude 10° 00:33:26 10° 153° (SSE) 2,219 - -62.8°
Sets 00:35:55 0° 138° (SE) 3,017 - -62.7°
